This is the latest recevied weather packets stored in our database for station/object CN8UN-10. If no packets are shown the sender has not sent any weather packets the latest 1 day(s).
| Time | Temp. | Humidity | Pressure | Rain* | Wind** | Luminosity | Snow |
|---|---|---|---|---|---|---|---|
| 1778018996 | 18.89° C | 100% | 0 hPa | 0 mm | 1.34 m/s, 1° | - | - |
| 1778018696 | 18.89° C | 100% | 0 hPa | 0 mm | 1.34 m/s, 23° | - | - |
| 1778018396 | 18.89° C | 100% | 0 hPa | 0 mm | 0 m/s | - | - |
| 1778018096 | 18.89° C | 100% | 0 hPa | 0 mm | 0.89 m/s, 36° | - | - |
| 1778017796 | 18.89° C | 100% | 0 hPa | 0 mm | 1.34 m/s, 64° | - | - |
| 1778017496 | 18.89° C | 100% | 0 hPa | 0 mm | 0.89 m/s, 358° | - | - |
| 1778017196 | 18.89° C | 100% | 0 hPa | 0 mm | 1.34 m/s, 15° | - | - |
| 1778016896 | 18.89° C | 100% | 0 hPa | 0 mm | 0 m/s | - | - |
| 1778016596 | 18.89° C | 100% | 0 hPa | 0 mm | 0 m/s | - | - |
| 1778016296 | 18.89° C | 100% | 0 hPa | 0 mm | 0 m/s | - | - |
| 1778015996 | 18.89° C | 100% | 0 hPa | 0 mm | 0 m/s | - | - |
| 1778015696 | 18.89° C | 100% | 0 hPa | 0 mm | 0.89 m/s, 1° | - | - |
| 1778015396 | 18.89° C | 100% | 0 hPa | 0 mm | 1.79 m/s, 53° | - | - |
| 1778015096 | 18.89° C | 100% | 0 hPa | 0 mm | 1.34 m/s, 30° | - | - |
| 1778014796 | 18.89° C | 100% | 0 hPa | 0 mm | 0.45 m/s, 70° | - | - |
| 1778014496 | 19.44° C | 100% | 0 hPa | 0 mm | 0 m/s | - | - |
| 1778014196 | 19.44° C | 100% | 0 hPa | 0 mm | 1.34 m/s, 344° | - | - |
| 1778013896 | 18.89° C | 100% | 0 hPa | 0 mm | 0.45 m/s, 8° | - | - |
| 1778013596 | 18.89° C | 100% | 0 hPa | 0 mm | 1.34 m/s, 347° | - | - |
| 1778013296 | 18.89° C | 100% | 0 hPa | 0 mm | 0.45 m/s, 348° | - | - |
| 1778012996 | 18.89° C | 100% | 0 hPa | 0 mm | 0.45 m/s, 302° | - | - |
| 1778012696 | 19.44° C | 100% | 0 hPa | 0 mm | 0.89 m/s, 9° | - | - |
| 1778012396 | 18.89° C | 100% | 0 hPa | 0 mm | 0.89 m/s, 35° | - | - |
| 1778012096 | 18.89° C | 100% | 0 hPa | 0 mm | 0.45 m/s, 153° | - | - |
| 1778011796 | 18.89° C | 100% | 0 hPa | 0 mm | 2.24 m/s, 316° | - | - |
* Rain latest hour (hover to see other rain measurements)
** Current wind speed in m/s (hover to see current wind gust speed)